www.pogodaiklimat.ru

Погода и климат >> Архив погоды >> Таиланд >> Суфанбури


ПОГОДА в Суфанбури

  • Прогноз погоды в Суфанбури
  • Монитор погоды в Суфанбури

АРХИВ ПОГОДЫ в Суфанбури

Время (UTC), дата Ветер
(напр.,м/с)
 
Видим.   Явления Облачность Т
(С)
Тd
(С)
f
(%)
Тe
(С)
Тes
(С)
Комфортность P
(гПа)
Po
(гПа)
Тmin
(С)
Tmax
(С)
R
(мм)
R24
(мм)
S
(см)
03 18.03 Ю 2 4000 м дымка 3/0
[Cs]
+32.7 +26.1 68 +48 +62 опасность
перегрева
1013.3 1012.3
06 18.03 Ю 2 6000 м мгла 3/1 600 м
[Cu hum Cs]
+36.3 +24.1 50 +48 +66 опасность
перегрева
1010.5 1009.5
09 18.03 ЮЗ 3 7000 м мгла 4/3 600 м
[Cu med, cong Cs]
+36.5 +24.4 50 +49 +53 опасность
перегрева
1007.3 1006.3
12 18.03 ЮЗ 4 5000 м дымка 4/3 600 м
[Cu med, cong Cs]
+31.6 +24.5 66 +44 +44 опасность
перегрева
1008.8 1007.8 +37.5
15 18.03 Ю 3 4000 м дымка 3/0
[Cs]
+28.8 +25.4 82 +42 +42 опасность
перегрева
1011.1 1010.1
18 18.03 штиль 0 3000 м дымка 3/0
[Cs]
+28.0 +25.9 88 +42 +42 опасность
перегрева
1010.6 1009.6
21 18.03 штиль 0 2000 м дымка 3/0
[Cs]
+27.1 +25.5 91 +40 +40 очень
душно
1009.2 1008.2
00 19.03 штиль 0 3000 м дымка 3/0
[Cs]
+26.8 +25.7 94 +40 +40 очень
душно
1010.9 1009.9 +26.2
03 19.03 штиль 0 5000 м дымка 3/0
[Cs]
+32.1 +24.9 66 +46 +64 опасность
перегрева
1012.4 1011.4
06 19.03 ЮЗ 2 6000 м мгла 3/0
[Cs]
+35.5 +24.0 52 +47 +66 опасность
перегрева
1009.7 1008.7
09 19.03 штиль 0 7000 м мгла 3/0
[Cs]
+37.2 +22.8 44 +47 +55 опасность
перегрева
1006.3 1005.4
12 19.03 ЮВ 2 6000 м мгла 4/0
[Ac trans Cs]
+32.0 +23.7 62 +43 +43 опасность
перегрева
1007.8 1006.8 +38.2
15 19.03 Ю 2 5000 м дымка 3/0
[Cs]
+29.0 +25.0 79 +42 +42 опасность
перегрева
1010.7 1009.7
18 19.03 штиль 0 4000 м дымка 3/0
[Cs]
+27.6 +25.6 89 +41 +41 опасность
перегрева
1010.2 1009.2
21 19.03 штиль 0 2000 м дымка 3/0
[Cs]
+26.2 +25.2 94 +38 +38 очень
душно
1008.9 1007.9
00 20.03 штиль 0 2000 м дымка 3/0
[Cs]
+25.9 +24.9 94 +37 +38 очень
душно
1010.7 1009.7 +25.4
03 20.03 ЮЗ 3 4000 м дымка 3/1 600 м
[Cu med, cong Cs]
+31.6 +25.2 69 +46 +56 опасность
перегрева
1012.4 1011.4
06 20.03 ЮЗ 3 7000 м мгла 3/1 600 м
[Cu med, cong Cs]
+35.5 +23.2 49 +46 +60 опасность
перегрева
1010.1 1009.1
09 20.03 ЮВ 2 8000 м мгла 3/0
[Cs]
+37.0 +22.6 44 +46 +53 опасность
перегрева
1006.9 1005.9
12 20.03 Ю 2 6000 м дымка 3/1 600 м
[Cu med, cong Cs]
+32.0 +24.6 65 +45 +45 опасность
перегрева
1007.9 1006.9 +37.8
15 20.03 Ю 3 6000 м дымка 3/0
[Cs]
+28.6 +26.1 86 +43 +43 опасность
перегрева
1011.5 1010.4
18 20.03 штиль 0 5000 м дымка 3/0
[Cs]
+27.6 +25.5 88 +40 +40 очень
душно
1010.3 1009.3
21 20.03 штиль 0 4000 м дымка 3/0
[Cs]
+26.6 +25.7 95 +39 +39 очень
душно
1008.7 1007.7
00 21.03 штиль 0 2000 м дымка 3/0
[Cs]
+26.4 +25.7 96 +39 +40 очень
душно
1010.2 1009.2 +26.0
03 21.03 ЮЗ 2 5000 м дымка 3/0
[Cs]
+32.0 +24.6 65 +45 +58 опасность
перегрева
1012.1 1011.1
06 21.03 ЮЗ 2 7000 м мгла 3/0
[Cs]
+36.7 +23.4 47 +47 +67 опасность
перегрева
1009.7 1008.7
09 21.03 штиль 0 7000 м мгла 3/0
[Cs]
+37.6 +23.5 45 +48 +57 опасность
перегрева
1006.2 1005.2
12 21.03 штиль 0 5000 м мгла 3/0
[Cs]
+34.5 +24.3 55 +47 +47 опасность
перегрева
1007.1 1006.1 +38.6
15 21.03 Ю 3 5000 м дымка 6/3 600 м
[Sc Cs]
+30.3 +26.4 80 +46 +46 опасность
перегрева
1010.3 1009.3
18 21.03 Ю 2 4000 м дымка 8/3 600 м
[Sc Cs]
+28.5 +26.8 91 +45 +45 опасность
перегрева
1009.5 1008.5
21 21.03 штиль 0 3000 м дымка 3/0
[Cs]
+27.7 +26.7 94 +43 +43 опасность
перегрева
1008.0 1007.0
00 22.03 штиль 0 2000 м дымка 3/0
[Cs]
+27.0 +26.4 97 +41 +42 опасность
перегрева
1009.6 1008.6 +26.5
03 22.03 штиль 0 5000 м мгла 3/0
[Cs]
+33.7 +20.9 47 +41 +59 опасность
перегрева
1011.3 1010.3
06 22.03 З 2 7000 м мгла 3/0
[Cs]
+37.3 +18.3 33 +41 +60 опасность
перегрева
1008.9 1007.9
09 22.03 ЮЗ 2 7000 м мгла 3/0
[Cs]
+39.4 +17.8 28 +42 +49 опасность
перегрева
1005.5 1004.5
12 22.03 штиль 0 5000 м мгла 3/0
[Cs]
+34.6 +19.5 41 +40 +40 очень
душно
1005.8 1004.8 +40.4
15 22.03 штиль 0 5000 м дымка 3/0
[Cs]
+29.6 +25.3 78 +43 +43 опасность
перегрева
1009.2 1008.2
18 22.03 штиль 0 4000 м дымка 3/0
[Cs]
+27.4 +26.0 92 +41 +41 опасность
перегрева
1008.6 1007.6
21 22.03 штиль 0 2000 м дымка 3/0
[Cs]
+26.7 +26.1 97 +40 +40 очень
душно
1007.7 1006.7
00 23.03 штиль 0 1000 м дымка 3/0
[Cs]
+26.2 +25.8 98 +39 +40 очень
душно
1009.7 1008.7 +25.8
03 23.03 Ю 3 4000 м мгла 3/0
[Cs]
+32.0 +19.9 49 +38 +49 очень
душно
1011.2 1010.2
06 23.03 Ю 1 6000 м мгла 3/0
[Cs]
+37.5 +19.4 35 +42 +65 опасность
перегрева
1008.5 1007.5
09 23.03 штиль 0 7000 м мгла 3/0
[Cs]
+38.9 +18.9 31 +43 +52 опасность
перегрева
1005.6 1004.6
12 23.03 штиль 0 6000 м мгла 3/0
[Cs]
+33.0 +21.5 51 +41 +41 опасность
перегрева
1006.5 1005.5 +40.0
15 23.03 Ю 4 6000 м дымка 3/0
[Cs]
+29.0 +24.6 77 +41 +41 опасность
перегрева
1009.0 1008.0
18 23.03 ЮЗ 2 5000 м дымка 3/0
[Cs]
+27.4 +25.4 89 +40 +40 очень
душно
1008.4 1007.4
21 23.03 штиль 0 2000 м дымка 3/0
[Cs]
+26.6 +26.0 97 +40 +40 очень
душно
1008.2 1007.2
00 24.03 штиль 0 1000 м дымка 3/0
[Cs]
+27.0 +26.4 97 +41 +42 опасность
перегрева
1009.6 1008.6 +26.4
03 24.03 ЮВ 3 4000 м дымка 8/4 600 м
[Cu hum Cs]
+32.2 +26.6 72 +49 +55 опасность
перегрева
1011.0 1010.0
06 24.03 Ю 3 6000 м мгла 6/1 600 м
[Cu hum Cs]
+37.2 +25.8 52 +52 +66 опасность
перегрева
1008.1 1007.1
09 24.03 Ю 5 7000 м мгла 8/3 600 м
[Cu hum Cs]
+37.7 +24.0 46 +49 +51 опасность
перегрева
1005.5 1004.5
12 24.03 Ю 7 5000 м мгла 8/3 600 м
[Cu med, cong Cs]
+32.4 +24.6 64 +45 +45 опасность
перегрева
1007.0 1006.0 +38.6
15 24.03 Ю 2 5000 м дымка 4/0
[Cs]
+29.6 +26.8 85 +46 +46 опасность
перегрева
1010.0 1009.0
18 24.03 штиль 0 4000 м дымка 3/0
[Cs]
+28.5 +26.7 90 +44 +44 опасность
перегрева
1009.8 1008.8

 

Местоположение метеостанции Суфанбури (Таиланд): широта 14.47 долгота 100.13 высота над уровнем моря 8 м.

В архиве по умолчанию представлена погода в Суфанбури за последнюю неделю. Архивные данные за месяц целиком и за предыдущие месяцы, начиная с января 2011 года, Вы можете получить, выбрав интересующий диапазон дат из раскрывающегося списка и нажав кнопку "Ввод!".


*Определитесь, кто Вы:
робот инопланетянин человек

Внимание! Время в таблицах - всемирное. Для получения местного времени необходимо прибавить поправку, которая равна 7 ч.

Смотрите также архив погоды в соседних городах и на ближайших метеорологических станциях:

Погода в У-Тхонг Агромете (Таиланд) (34 км)
Погода в Накхонпатхоме (Таиланд) (53 км)
Погода в Лопбури (Таиланд) (63 км)
Погода в Аюттхая (Таиланд) (64 км)
Погода в Патхумтхани (Таиланд) (67 км)
Погода в Чайнат Агромете (Таиланд) (76 км)
Погода в Дон Муанг (Таиланд) (79 км)
Погода в Канчанабури (Таиланд) (82 км)
Погода в Сарабури (Таиланд) (85 км)
Погода в Бангкоке (Таиланд) (94 км)

Пояснения к столбцам:

Ветер - указаны скорость ветра в м/с - средняя за 10 мин, порывы в срок и между сроками (в фигурных скобках) и направление, откуда дует ветер: С - северный, СВ - северо-восточный, В - восточный, ЮВ - юго-восточный, Ю - южный, ЮЗ - юго-западный, З - западный, СЗ - северо-западный.
Видимость - горизонтальная дальность видимости в метрах или километрах. При видимости от 1 до 10 км при отсутствии осадков обычно наблюдается дымка, при ухудшении видимости до 1 км и менее - туман. В сухую погоду видимость может ухудшаться дымом, пылью или мглою.
Явления - указаны атмосферные явления, наблюдавшиеся в срок или в последний час перед сроком; фигурными скобками обозначены явления, наблюдавшиеся между сроками (за 1-3 часа до срока); квадратными скобками обозначены град или гололедные отложения с указанием их диаметра в мм.
Облачность - указаны через наклонную черту общая и нижняя облачность в баллах и высота нижней границы облаков в метрах; квадратными скобками обозначены формы облаков: Ci - перистые, Cs - перисто-слоистые, Cc - перисто-кучевые, Ac - высококучевые, As - высокослоистые, Sc - слоисто-кучевые, Ns - слоисто-дождевые, Cu - кучевые, Cb - кучево-дождевые. Подробнее классификацию облаков см. в Атласе облаков (PDF).
T - Температура воздуха - температура, измеренная на высоте 2 м над землей.
Td - Температура точки росы - температура, при понижении до которой содержащийся в воздухе водяной пар достигнет насыщения.
f - Относительная влажность воздуха - влажноcть воздуха, измеренная на высоте 2 м над землей.
Te - Эффективная температура - температура, которую ощущает одетый по сезону человек в тени. Характеристика душности погоды. При расчете учитывается влияние влажности воздуха и скорости ветра на теплоощущения человека.
Tes - Эффективная температура на солнце - температура, которую ощущает человек, с поправкой на солнечный нагрев. Характеристика знойности погоды. Зависит от высоты солнца над горизонтом, облачности и скорости ветра. Ночью, в пасмурную погоду, а также при ветре 12 м/с и более поправка равна нулю.
P - Атмосферное давление - приведенное к уровню моря атмосферное давление.
Po - Атмосферное давление - измеренное на уровне метеостанции атмосферное давление.
Tmin - Минимальная температура - минимум температуры воздуха на высоте 2 м над землей.
Tmax - Максимальная температура - максимум температуры воздуха на высоте 2 м над землей.
R - Количество осадков - Количество выпавших осадков за период времени, мм. При наведении курсора мыши на число - период времени, за который выпало указанное количество осадков.
R24 - Количество осадков - Количество выпавших осадков за 24 часа, мм.
S - Снежный покров - Высота снежного покрова, см. При наведении курсора мыши на число - состояние снежного покрова и степень покрытия местности в баллах.